Location: Newark
(25.0000°N, 73.5000°E)
Time: 16:40:18
(UTC+00:00)

Altair - Visible Passes

Search period start: 27 February 2021 00:00
Search period end: 09 March 2021 00:00
Orbit: 1501 x 1682 km, 47.2° (Epoch: 26 February)

Date Brightness Start Highest point End Pass type
(mag) Time Alt. Az. Time Alt. Az. Time Alt. Az.
27 Feb 8.2 14:32:49 10° WSW 14:41:36 48° NW 14:50:10 12° NE visible
27 Feb 9.1 16:42:02 10° WNW 16:48:13 20° NNW 16:48:13 20° NNW visible
27 Feb 9.5 21:12:23 15° ESE 21:12:23 15° ESE 21:13:43 10° ESE visible
27 Feb 8.0 23:10:29 44° SSW 23:10:29 44° SSW 23:18:18 10° SSE visible
28 Feb 8.1 14:07:30 10° WSW 14:16:22 52° NW 14:25:29 10° NE visible
28 Feb 9.1 16:16:29 10° WNW 16:23:09 21° NNW 16:24:47 20° N visible
28 Feb 8.4 22:47:34 36° S 22:47:34 36° S 22:53:18 10° SSE visible
01 Mar 8.0 13:42:11 10° WSW 13:51:08 57° NW 14:00:19 10° NE visible
01 Mar 9.1 15:50:56 10° WNW 15:57:44 22° NNW 16:01:16 18° NNE visible
01 Mar 8.9 22:24:39 25° SSE 22:24:39 25° SSE 22:28:16 10° SSE visible
02 Mar 8.0 13:16:54 10° WSW 13:25:56 62° NW 13:35:10 10° NE visible
02 Mar 9.0 15:25:22 10° WNW 15:32:20 23° NNW 15:37:42 14° NNE visible
02 Mar 9.6 17:34:21 10° NNW 17:35:44 13° NNW 17:35:44 13° NNW visible
02 Mar 9.4 22:01:41 16° SSE 22:01:41 16° SSE 22:03:13 10° SSE visible
02 Mar 9.2 23:59:46 11° SW 23:59:46 11° SW 00:00:25 10° SW visible
03 Mar 9.0 14:59:49 10° WNW 15:06:56 24° NNW 15:14:04 10° NNE visible
03 Mar 9.4 17:09:04 10° NW 17:12:06 16° NNW 17:12:06 16° NNW visible
04 Mar 9.0 14:34:17 10° WNW 14:41:34 25° NNW 14:49:03 10° NNE visible
04 Mar 9.2 16:43:44 10° NW 16:48:25 18° N 16:48:25 18° N visible
05 Mar 8.9 14:08:45 10° WNW 14:16:13 27° NNW 14:23:52 10° NNE visible
05 Mar 9.2 16:18:23 10° NW 16:24:19 18° N 16:24:41 18° N visible
06 Mar 8.9 13:43:14 10° W 13:50:52 29° NNW 13:58:41 10° NNE visible
06 Mar 9.1 15:52:59 10° NW 15:58:51 18° N 16:00:56 17° NNE visible
06 Mar 9.7 17:58:38 10° NNW 17:58:57 11° NNW 17:58:57 11° NNW visible
07 Mar 8.9 13:17:44 10° W 13:25:33 31° NNW 13:33:32 10° NNE visible
07 Mar 9.2 15:27:34 10° NW 15:33:23 18° N 15:37:09 14° NNE visible
07 Mar 9.5 17:33:31 10° NNW 17:35:10 15° NNW 17:35:10 15° NNW visible
08 Mar 9.2 15:02:07 10° NW 15:07:56 18° N 15:13:22 11° NE visible
08 Mar 9.3 17:08:24 10° NNW 17:11:23 19° NNW 17:11:23 19° NNW visible
